View from above orbital plane
|
View from above satellite
|
Ground track
|
The orbit data is extracted from the following two-line orbital elements,
1 00050U 60009B 21062.61517150 -.00000106 00000-0 -18981-3 0 9996
2 00050 47.2329 36.9196 0113665 17.6644 342.8051 12.20115143701863
Epoch (UTC): | 03 March 2021 14:45:50 |
Eccentricity: | 0.0113665 |
inclination: | 47.2329° |
perigee height: | 1501 km |
apogee height: | 1682 km |
right ascension of ascending node: | 36.9196° |
argument of perigee: | 17.6644° |
revolutions per day: | 12.20115143 |
mean anomaly at epoch: | 342.8051° |
orbit number at epoch: | 70186 |
The dashed part of the orbit path shows where the satellite is in the earth's shadow,
|
|